Wind_Speed
17 15 19 22 38 29 29 28 28 25 22 20 18 15 17 17 13 13 12 18 14 15 15 15 15 16 17 14 14 7 9 11 11 7 6 2 4 7 8 9 8 6 4
21 17 20 16 33 34 34 31 29 27 23 21 20 18 16 16 15 14 17 18 18 18 16 15 15 13 13 13 11 10 13 11 11 1 3 4 7 6 8 9 9 6 4
19 19 18 18 24 35 34 36 32 31 25 24 21 16 15 16 15 14 14 13 16 18 17 16 18 18 12 12 13 9 11 10 2 4 4 4 5 8 9 10 10 8 7
19 18 19 18 18 29 33 36 32 33 27 26 23 19 17 15 16 14 11 14 14 14 15 16 19 21 16 11 11 8 9 2 8 4 5 7 8 9 10 10 10 10 9
24 21 20 22 21 24 35 37 34 36 33 30 25 22 20 19 19 16 15 15 15 15 15 16 17 20 15 12 11 11 10 9 8 8 9 10 10 11 12 12 11 9 11
28 25 23 24 22 21 35 39 37 35 36 34 25 24 22 20 19 18 15 17 17 17 17 16 20 21 16 14 15 12 12 13 10 14 10 12 12 14 15 14 13 12 11
30 29 25 25 24 21 25 35 39 38 33 27 27 26 24 21 20 19 17 18 19 20 19 16 25 24 11 11 13 14 16 16 14 14 11 13 12 18 18 17 15 12 13
31 32 30 27 25 24 27 33 32 40 41 35 31 26 24 21 20 19 19 20 21 21 19 16 19 17 16 19 14 14 15 15 14 17 14 14 17 18 20 20 12 15 15
27 27 30 31 28 27 28 30 31 34 40 38 35 29 26 24 20 21 21 21 22 23 25 21 17 16 17 18 16 17 18 17 16 14 16 17 19 20 21 16 17 18 18
28 27 27 33 32 28 28 29 30 35 34 33 36 32 30 25 21 19 22 21 21 25 26 21 17 15 16 16 17 18 21 19 17 19 21 21 21 22 23 22 19 20 21
23 24 23 29 31 29 29 29 30 37 35 28 35 28 25 23 21 22 24 23 23 24 24 19 18 17 16 15 16 19 20 21 21 23 23 24 27 28 27 23 23 22 21
19 20 21 24 29 29 29 30 29 38 35 32 30 23 22 25 22 21 21 23 24 24 22 18 20 19 19 18 19 19 20 21 23 25 25 26 27 27 27 26 26 21 18
12 14 16 21 24 27 28 29 28 30 31 31 28 23 23 22 22 24 24 23 22 21 20 21 22 23 22 20 20 22 23 24 25 27 27 27 28 29 29 27 23 24 22
11 14 15 19 22 25 27 28 29 34 33 31 25 27 26 25 29 26 25 21 21 23 23 21 22 27 25 24 25 25 27 27 27 28 28 28 28 28 27 25 26 28 29
8 11 14 16 19 22 24 27 29 31 35 34 29 31 27 28 29 29 32 28 27 24 22 22 23 26 26 24 22 21 23 25 26 26 24 26 28 29 27 27 27 29 29
3 7 10 12 15 19 22 24 25 30 32 33 32 28 26 24 26 24 25 22 27 26 26 26 24 25 24 22 27 26 27 28 26 28 31 31 31 32 31 33 32 31 29
3 4 5 7 12 17 20 22 21 25 25 24 25 22 23 25 23 19 29 24 25 27 27 25 23 26 27 26 30 27 28 29 29 31 33 33 32 30 27 27 26 27 25
2 3 3 8 9 13 15 17 16 18 24 28 28 26 28 27 26 26 29 30 27 28 30 26 26 28 29 28 31 31 29 29 31 33 33 32 33 31 27 26 26 25 26
5 7 6 5 9 10 9 12 16 21 25 27 28 29 30 31 31 33 22 27 27 27 27 23 25 30 32 32 32 36 34 35 36 33 30 29 26 25 27 25 26 27 31
12 10 4 9 11 14 16 18 20 22 26 23 31 32 32 32 33 32 29 25 21 20 23 26 26 27 31 31 33 33 36 30 28 25 24 22 20 21 22 23 26 29 30
10 8 7 9 10 11 13 18 21 26 30 28 31 31 34 34 30 29 31 29 29 29 31 29 26 25 25 30 29 26 23 21 22 21 23 25 24 25 25 26 30 31 34
9 9 10 10 13 10 10 11 14 19 23 24 28 31 33 34 30 25 29 31 33 36 32 26 24 27 26 27 28 26 24 27 25 26 29 29 28 30 31 32 34 36 38
14 11 12 15 15 16 17 18 17 16 19 21 22 25 26 27 29 32 29 28 28 27 27 29 28 28 29 30 31 32 34 34 32 31 34 38 37 38 40 42 40 41 45
18 20 19 19 20 20 21 22 22 23 23 24 24 26 28 30 30 26 27 27 28 27 25 26 29 33 33 33 34 35 35 36 38 38 38 41 43 44 46 49 49 48 46
23 25 23 22 21 22 24 23 23 25 26 27 29 30 30 29 28 27 27 27 28 29 32 34 35 35 36 39 41 41 42 45 44 45 43 43 45 47 49 50 49 47 45
21 21 22 21 23 25 23 23 24 26 27 30 32 33 33 34 33 31 30 30 32 34 35 35 38 44 41 44 45 46 42 45 47 47 47 46 49 49 46 44 45 47 49
Wind_Direction
270 254 237 244 228 225 225 219 225 228 222 215 214 220 221 217 214 213 219 239 241 241 248 259 268 283 271 279 311 284 283 303 328 326 274 272 339 348 348 343 344 343 346
269 262 262 271 221 226 220 219 222 224 222 215 211 211 216 214 215 219 224 230 239 245 250 258 261 282 276 277 302 267 276 295 318 333 347 332 329 359 350 343 342 338 328
264 260 257 251 229 219 217 215 217 222 219 221 215 219 215 217 217 219 224 235 245 254 256 254 262 272 277 294 298 260 282 277 183 14 2 346 357 340 346 349 340 329 323
264 257 253 252 253 230 214 216 216 226 216 228 217 215 215 217 217 220 221 235 256 258 261 253 261 262 258 267 279 262 283 272 246 303 335 339 344 336 335 341 341 332 318
262 255 249 249 246 234 218 215 215 227 210 220 217 214 216 221 228 230 230 239 245 254 263 268 271 263 250 260 258 272 260 270 268 288 298 308 317 342 332 329 330 326 316
255 252 249 249 249 246 225 218 215 225 215 214 210 214 215 220 233 237 239 240 247 253 268 282 276 264 256 255 247 253 261 267 264 269 293 302 298 335 323 317 315 315 310
253 247 243 246 248 250 221 213 220 223 221 214 211 216 219 223 230 237 238 243 251 261 272 284 294 256 245 248 254 256 257 260 268 279 287 286 283 312 311 307 298 306 309
247 238 238 243 242 241 235 223 227 228 225 225 209 218 226 229 232 238 244 247 254 265 274 278 290 298 273 266 253 260 254 268 274 271 266 277 294 306 307 310 279 306 300
235 234 236 236 238 237 232 231 230 225 226 223 225 217 229 236 236 240 245 251 259 267 270 271 272 276 272 262 261 259 259 269 272 269 274 281 291 298 303 297 282 291 294
234 237 245 234 231 235 234 233 235 229 218 224 226 224 229 233 239 246 253 255 264 271 273 276 276 282 281 268 270 269 269 262 269 274 284 289 292 293 295 295 292 291 293
233 244 241 227 225 229 236 235 238 221 219 224 231 222 228 234 244 251 256 258 265 272 277 269 274 273 272 268 272 271 267 274 274 282 288 288 291 290 280 286 286 286 286
240 241 235 226 227 228 234 234 231 219 223 225 236 220 229 232 239 249 253 263 270 264 266 266 267 268 269 271 274 276 276 280 285 290 292 290 284 280 283 286 283 278 282
230 230 225 226 227 228 228 226 223 218 219 224 228 227 231 226 236 248 256 264 271 263 263 271 271 266 268 272 277 284 284 283 285 286 287 283 281 284 285 284 280 274 277
242 234 229 224 226 228 224 223 222 222 224 225 231 236 235 242 239 248 255 258 261 266 265 265 269 273 272 276 280 280 278 279 282 283 284 286 285 284 281 281 273 271 270
244 230 227 224 223 225 223 224 223 225 224 229 229 238 238 242 249 253 259 258 260 261 262 267 273 280 276 276 284 286 287 286 285 284 284 288 288 287 282 278 274 269 267
233 230 239 237 223 215 216 215 227 224 226 234 234 238 240 239 255 271 262 268 271 262 261 271 272 270 267 278 280 288 287 286 282 281 288 288 287 290 282 272 266 261 263
135 203 190 219 214 215 214 222 227 219 227 232 235 233 242 254 258 258 249 269 269 264 262 269 266 265 270 270 281 279 282 284 284 284 288 289 289 291 282 287 281 282 289
245 224 168 201 204 214 219 222 220 215 229 237 238 237 242 255 254 263 262 268 265 260 261 265 264 274 279 284 271 290 282 288 287 285 288 285 286 285 282 281 284 285 281
267 231 221 225 217 217 231 237 239 236 245 247 238 243 240 242 247 256 258 265 265 262 266 264 272 273 272 271 273 281 279 287 283 280 280 281 281 280 276 277 279 278 278
358 354 256 254 256 260 259 254 244 248 255 266 243 240 242 243 249 247 249 257 252 264 268 269 270 269 276 275 278 280 286 284 277 274 273 273 274 276 279 281 277 278 277
358 338 324 328 309 281 265 257 256 253 255 257 250 248 248 247 238 253 251 243 255 269 271 275 269 272 269 280 279 278 277 274 277 276 273 273 276 276 278 278 277 278 278
325 327 319 309 302 306 289 283 276 267 259 260 258 259 258 254 253 256 256 264 270 274 273 267 263 276 262 264 268 275 272 274 274 271 270 271 273 279 282 282 282 283 283
309 299 293 297 292 289 288 288 288 283 278 275 267 257 257 255 263 273 279 274 270 278 268 261 263 258 263 267 274 276 276 275 275 273 276 277 280 281 281 280 277 276 277
294 291 289 288 290 286 281 283 284 282 281 281 281 279 277 274 273 271 271 273 275 273 268 262 261 267 268 272 274 276 277 279 280 281 280 278 279 281 284 283 284 283 287
288 285 282 282 284 285 276 281 286 285 282 280 284 284 281 276 271 269 271 272 272 269 268 268 268 270 274 278 277 275 275 276 279 282 280 281 285 287 287 287 286 287 286
285 283 288 286 292 287 288 282 283 281 284 282 280 279 277 277 278 277 276 276 276 275 274 274 279 279 275 277 278 275 276 281 279 276 276 280 282 284 282 285 286 287 287
Height
5876 5877 5877 5877 5880 5884 5887 5892 5896 5900 5901 5902 5904 5905 5906 5908 5910 5913 5908 5916 5915 5916 5916 5917 5917 5917 5916 5918 5918 5917 5917 5917 5917 5914 5914 5914 5914 5914 5913 5912 5911 5910 5910
5870 5871 5871 5871 5873 5877 5882 5886 5892 5897 5897 5900 5901 5902 5902 5905 5906 5909 5911 5913 5913 5913 5913 5915 5915 5915 5914 5915 5915 5915 5915 5915 5914 5914 5914 5914 5913 5913 5912 5911 5910 5910 5909
5864 5865 5866 5867 5868 5871 5876 5882 5887 5892 5894 5897 5898 5900 5902 5903 5905 5907 5908 5909 5910 5910 5911 5912 5913 5912 5913 5913 5912 5912 5913 5914 5913 5912 5912 5912 5911 5911 5910 5910 5910 5909 5909
5859 5860 5861 5861 5864 5865 5871 5878 5883 5888 5892 5895 5896 5898 5900 5902 5903 5904 5906 5904 5906 5907 5908 5909 5909 5908 5910 5910 5910 5910 5911 5912 5911 5911 5911 5911 5910 5910 5909 5908 5908 5907 5907
5853 5856 5857 5858 5860 5863 5867 5873 5878 5883 5887 5891 5894 5895 5897 5898 5900 5902 5904 5904 5904 5904 5904 5906 5905 5905 5905 5907 5907 5907 5908 5909 5909 5909 5908 5908 5908 5908 5907 5906 5906 5905 5905
5847 5850 5852 5854 5856 5858 5863 5869 5873 5878 5883 5886 5889 5891 5893 5894 5897 5898 5900 5900 5901 5898 5902 5904 5902 5899 5902 5903 5904 5903 5905 5906 5907 5907 5907 5906 5906 5905 5905 5904 5903 5903 5902
5839 5843 5847 5849 5851 5853 5857 5864 5869 5873 5879 5881 5883 5886 5887 5888 5892 5895 5897 5897 5896 5896 5899 5899 5896 5895 5894 5897 5899 5900 5902 5904 5904 5904 5904 5903 5903 5903 5902 5901 5899 5900 5900
5830 5835 5841 5844 5847 5849 5853 5860 5864 5868 5873 5876 5876 5882 5885 5888 5889 5892 5893 5894 5892 5894 5895 5896 5893 5893 5893 5895 5895 5897 5900 5901 5901 5901 5901 5901 5901 5900 5899 5898 5895 5896 5895
5823 5828 5833 5837 5840 5845 5849 5853 5858 5863 5867 5871 5875 5878 5881 5884 5886 5888 5889 5890 5890 5891 5890 5892 5890 5890 5890 5891 5892 5893 5896 5898 5898 5898 5899 5898 5897 5896 5895 5895 5894 5893 5892
5818 5823 5826 5830 5834 5840 5844 5847 5852 5857 5862 5867 5870 5873 5875 5879 5882 5884 5885 5887 5888 5888 5887 5888 5886 5885 5886 5887 5888 5890 5892 5893 5894 5894 5894 5893 5892 5891 5891 5890 5889 5889 5888
5814 5817 5820 5824 5830 5835 5839 5844 5847 5851 5858 5862 5864 5868 5872 5874 5877 5880 5881 5884 5885 5884 5883 5884 5884 5883 5884 5884 5885 5886 5888 5888 5889 5889 5888 5888 5887 5885 5885 5885 5885 5884 5883
5810 5813 5816 5820 5826 5831 5835 5839 5842 5847 5853 5857 5860 5864 5867 5870 5873 5875 5877 5878 5878 5879 5879 5880 5881 5881 5880 5881 5881 5882 5882 5882 5883 5883 5883 5882 5881 5880 5879 5878 5878 5878 5878
5808 5809 5813 5817 5821 5827 5831 5835 5839 5845 5849 5852 5857 5859 5861 5864 5869 5871 5873 5873 5872 5874 5875 5877 5877 5878 5878 5878 5877 5876 5877 5876 5877 5877 5877 5876 5875 5874 5873 5872 5872 5871 5872
5806 5808 5811 5814 5818 5822 5826 5831 5836 5840 5845 5848 5853 5856 5859 5861 5864 5867 5869 5869 5869 5870 5871 5873 5873 5872 5872 5872 5872 5872 5871 5871 5871 5870 5869 5869 5868 5867 5866 5866 5866 5867 5866
5805 5807 5810 5812 5815 5819 5824 5827 5831 5836 5841 5846 5849 5852 5856 5859 5860 5862 5862 5864 5865 5865 5865 5867 5868 5866 5865 5866 5865 5865 5864 5865 5865 5863 5862 5862 5861 5860 5860 5860 5860 5860 5860
5806 5807 5808 5810 5814 5817 5820 5824 5828 5832 5837 5841 5844 5847 5851 5854 5856 5857 5857 5858 5858 5859 5860 5860 5861 5860 5861 5861 5858 5859 5858 5858 5857 5857 5855 5854 5854 5853 5852 5851 5850 5851 5852
5809 5809 5809 5811 5813 5816 5820 5823 5825 5828 5832 5835 5840 5843 5845 5847 5849 5852 5853 5853 5852 5852 5853 5853 5854 5853 5853 5853 5850 5851 5851 5850 5850 5849 5848 5847 5845 5845 5844 5843 5843 5843 5842
5810 5810 5809 5812 5814 5817 5819 5821 5822 5824 5828 5832 5835 5837 5839 5841 5843 5845 5846 5846 5846 5846 5846 5848 5846 5845 5845 5846 5843 5843 5843 5843 5842 5841 5840 5839 5838 5837 5836 5835 5836 5835 5835
5810 5810 5812 5813 5815 5816 5818 5819 5821 5824 5826 5828 5830 5832 5834 5836 5837 5837 5837 5838 5839 5839 5840 5841 5841 5839 5840 5839 5838 5835 5834 5835 5833 5832 5831 5830 5830 5829 5828 5829 5830 5828 5828
5812 5810 5811 5812 5813 5815 5816 5817 5819 5821 5821 5822 5823 5825 5826 5827 5829 5830 5830 5832 5833 5833 5834 5834 5833 5831 5830 5829 5830 5829 5826 5824 5824 5823 5823 5822 5823 5822 5821 5822 5821 5820 5819
5812 5812 5812 5812 5811 5811 5812 5813 5815 5816 5817 5818 5818 5819 5820 5821 5821 5823 5823 5825 5825 5826 5827 5826 5827 5823 5820 5820 5819 5817 5817 5816 5815 5816 5817 5815 5815 5814 5813 5814 5811 5810 5809
5810 5810 5810 5810 5809 5810 5809 5810 5809 5810 5811 5811 5812 5812 5812 5814 5815 5816 5817 5817 5817 5817 5818 5816 5817 5815 5813 5813 5812 5811 5812 5810 5811 5810 5808 5807 5806 5804 5804 5803 5801 5799 5797
5807 5808 5808 5808 5807 5807 5806 5806 5806 5806 5806 5806 5807 5807 5808 5808 5808 5809 5809 5808 5808 5808 5809 5809 5807 5807 5806 5805 5804 5804 5802 5802 5802 5801 5799 5796 5797 5796 5793 5793 5792 5789 5786
5805 5804 5804 5804 5803 5802 5801 5801 5801 5800 5800 5801 5801 5801 5801 5800 5801 5801 5800 5800 5800 5800 5801 5800 5800 5800 5799 5797 5796 5794 5794 5792 5789 5790 5790 5786 5785 5782 5780 5778 5777 5774 5771
5799 5798 5799 5798 5798 5798 5797 5796 5795 5795 5794 5794 5793 5793 5793 5793 5794 5794 5793 5793 5793 5792 5793 5792 5791 5790 5788 5786 5784 5782 5780 5779 5777 5776 5777 5773 5771 5768 5765 5762 5761 5759 5754
5795 5793 5793 5794 5794 5793 5792 5792 5791 5790 5789 5788 5787 5786 5785 5785 5785 5785 5785 5784 5784 5783 5782 5780 5780 5778 5776 5775 5773 5770 5766 5765 5764 5762 5762 5760 5756 5755 5752 5748 5747 5744 5741